Location: Unspecified
(0.0000°N, 0.0000°E)
Time: 13:45:43
(UTC+00:00)

Transit 2A - Pass Details

Date: 25 November 2019
Orbit: 602 x 957 km, 66.7° (Epoch: 08 December)

Event Time Altitude Azimuth Distance (km) Brightness Sun altitude
Rises 08:13:57 0° 180° (S) 3,531 9.7 34.1°
Reaches altitude 10° 08:16:55 10° 168° (SSE) 2,538 9.3 34.7°
Maximum altitude 08:21:49 27° 112° (ESE) 1,542 10.1 35.8°
Drops below altitude 10° 08:26:19 10° 55° (NE) 2,334 9.0 36.8°
Sets 08:28:56 0° 43° (NE) 3,196 9.4 37.4°
